Date,TemperatureHighF,TemperatureAvgF,TemperatureLowF,DewpointHighF,DewpointAvgF,DewpointLowF,HumidityHigh,HumidityAvg,HumidityLow,PressureMaxIn,PressureMinIn,WindSpeedMaxMPH,WindSpeedAvgMPH,GustSpeedMaxMPH,PrecipitationSumIn
2013-5-1,80.1,66.7,54.7,63.6,57.2,51.2,88,73,50,30.21,30.09,0,0,0,0.00
2013-5-2,79.0,65.2,53.8,61.8,56.6,50.3,88,75,52,30.22,30.10,0,0,0,0.00
2013-5-3,74.3,62.1,52.5,60.1,54.4,49.0,88,77,54,30.14,29.98,0,0,0,0.00
2013-5-4,58.8,55.0,52.3,53.7,51.1,48.8,89,87,82,29.98,29.90,2,0,3,1.35
2013-5-5,56.5,52.9,49.6,53.3,49.7,46.5,89,89,88,29.92,29.79,5,0,5,2.36
2013-5-6,57.4,51.1,44.2,52.1,47.2,41.2,89,87,79,29.95,29.79,4,0,4,0.30
2013-5-7,72.7,55.9,41.2,56.2,48.7,38.0,89,78,53,30.00,29.91,4,0,5,0.02
2013-5-8,77.4,63.5,53.8,61.6,55.6,50.3,89,77,55,30.08,29.96,6,0,7,0.00
2013-5-9,82.6,66.3,52.2,65.8,57.3,49.0,89,75,49,30.13,30.02,0,0,0,0.00
2013-5-10,73.2,64.9,55.6,63.2,57.6,52.1,88,78,65,30.09,29.95,1,0,1,0.00
2013-5-11,78.6,66.0,52.7,65.3,57.7,47.6,88,76,57,30.03,29.90,0,0,0,0.02
2013-5-12,68.2,57.7,44.4,51.7,41.1,33.8,87,57,31,30.18,30.02,0,0,0,0.00
2013-5-13,70.7,54.2,38.1,44.9,38.4,34.6,88,60,31,30.27,30.15,0,0,0,0.00
2013-5-14,79.7,61.9,40.8,57.0,48.0,36.9,88,63,42,30.26,30.04,0,0,0,0.00
2013-5-15,88.9,71.4,54.5,63.6,56.6,50.7,88,62,38,30.18,30.00,0,0,0,0.00
2013-5-16,85.8,69.0,55.9,66.1,58.1,50.5,86,70,45,30.10,29.98,0,0,0,0.00
2013-5-17,79.5,68.2,60.4,67.7,62.3,56.9,88,82,65,30.12,30.02,4,0,5,0.00
2013-5-18,75.4,67.3,63.1,69.2,63.4,59.6,88,87,79,30.09,30.01,2,0,2,1.40
2013-5-19,69.4,65.3,58.8,65.7,61.7,55.3,89,88,88,30.10,30.02,8,0,9,1.98
2013-5-20,81.7,68.0,56.5,72.2,62.4,53.3,89,83,68,30.15,30.01,8,0,9,0.00
2013-5-21,88.3,70.1,61.7,74.4,64.3,58.2,88,82,60,30.07,29.94,0,0,0,1.07
2013-5-22,85.5,70.1,60.8,74.2,64.1,57.3,88,82,60,29.98,29.86,0,0,0,0.00
2013-5-23,83.3,70.5,60.6,69.0,61.1,55.4,88,73,54,30.05,29.92,0,0,0,0.00
2013-5-24,73.0,63.4,51.6,55.9,50.1,44.7,84,64,42,30.28,30.05,0,0,0,0.00
2013-5-25,75.9,60.8,45.1,55.1,48.1,41.8,89,66,35,30.36,30.18,0,0,0,0.00
2013-5-26,76.8,63.4,52.0,59.7,53.9,48.2,88,73,45,30.31,30.19,0,0,0,0.00
2013-5-27,85.8,68.9,54.0,64.9,58.2,50.5,88,71,44,30.25,30.10,0,0,0,1.31
2013-5-28,87.1,73.4,59.9,67.2,61.3,56.2,88,68,46,30.20,30.09,0,0,0,0.00
2013-5-29,86.9,73.0,59.0,69.1,62.4,55.1,88,71,49,30.24,30.10,0,0,0,0.00
2013-5-30,86.9,72.9,60.6,70.9,64.5,57.1,88,76,52,30.25,30.10,0,0,0,0.00
2013-5-31,87.3,74.1,62.2,69.9,64.5,58.7,88,73,52,30.20,30.06,6,0,7,0.00